This demonstration page uses our WeatherBlox Daily Observations layout. Learn more.

Left ArrowRight Arrow

Hourly Observations for June 8, 2017

Temp ( °F °C ) Dew Point ( °F °C ) Humidity (%) Winds ( mph kmh ) Pressure ( in mb ) Visibility ( mi km ) Precip ( " mm )
12:56 am 00:56 Clear 58 14.3 51 10.5 78 78 ESE 5 7 30.04 1017 10 16 0.00 0.00
1:56 am 01:56 Clear 57 13.8 51 10.8 82 82 E 3 6 30.01 1016 10 16 0.00 0.00
2:56 am 02:56 Clear 55 12.7 51 10.4 86 86 Calm 30.01 1016 10 16 0.00 0.00
3:56 am 03:56 Clear 52 11.2 48 9.1 87 87 Calm 30.02 1017 10 16 0.00 0.00
4:56 am 04:56 Clear 53 11.8 50 10 89 89 E 3 6 30.02 1017 10 16 0.00 0.00
5:56 am 05:56 Sunny 54 12 51 10.4 90 90 Calm 30.02 1017 10 16 0.00 0.00
6:56 am 06:56 Sunny 56 13.4 53 11.4 88 88 ESE 3 6 30.03 1017 10 16 0.00 0.00
7:56 am 07:56 Sunny 65 18.4 53 11.9 66 66 SE 3 6 30.03 1017 10 16 0.00 0.00
8:56 am 08:56 Sunny 73 22.5 53 11.8 51 51 S 3 6 30.02 1017 10 16 0.00 0.00
9:56 am 09:56 Sunny 77 25 52 11.2 42 42 SW 8 13 30.01 1016 10 16 0.00 0.00
10:56 am 10:56 Sunny 80 26.7 50 10 35 35 S 12 19 29.99 1016 10 16 0.00 0.00
11:56 am 11:56 Sunny 82 27.5 50 10.2 34 34 S 9 15 29.98 1015 10 16 0.00 0.00
12:56 pm 12:56 Sunny 83 28.3 51 10.5 33 33 S 13 20 29.96 1015 10 16 0.00 0.00
1:56 pm 13:56 Sunny 85 29.2 51 10.3 31 31 S 10 17 29.93 1014 10 16 0.00 0.00
2:56 pm 14:56 Sunny 85 29.6 51 10.7 31 31 SSE 12 19 29.91 1013 10 16 0.00 0.00
3:56 pm 15:56 Sunny 87 30.3 51 10.8 30 30 S 12 19 29.91 1013 10 16 0.00 0.00
4:56 pm 16:56 Sunny 86 30.2 50 10.2 29 29 SSE 12 19 29.87 1012 10 16 0.00 0.00
5:56 pm 17:56 Sunny 86 29.9 48 8.9 27 27 S 8 13 29.85 1011 10 16 0.00 0.00
6:56 pm 18:56 Sunny 85 29.4 45 7.3 25 25 S 7 11 29.84 1011 10 16 0.00 0.00
7:56 pm 19:56 Sunny 82 27.5 45 7.3 28 28 SSE 7 11 29.84 1011 10 16 0.00 0.00
8:56 pm 20:56 Clear 78 25.4 49 9.2 36 36 SSE 5 7 29.84 1010 10 16 0.00 0.00
9:56 pm 21:56 Clear 74 23.1 51 10.8 46 46 S 7 11 29.84 1010 10 16 0.00 0.00
10:56 pm 22:56 Clear 63 17.4 52 11.2 67 67 S 5 7 29.84 1011 10 16 0.00 0.00
11:56 pm 23:56 Clear 69 20.4 51 10.8 54 54 SSE 5 7 29.84 1010 10 16 0.00 0.00

Powered by AerisWeather